Location: ?????????
(38.5999°N, 22.7695°E)
Time: 16:16:30
(UTC+00:00)

USA 234 - Pass Details

Date: 23 May 2024
Orbit: 1100 x 1107 km, 123.0° (Epoch: 16 June)

Event Time Altitude Azimuth Distance (km) Brightness Sun altitude
Exits shadow 00:56:34 36° 223° (SW) 1,668 3.7 -21.0°
Maximum altitude 00:57:04 37° 233° (SW) 1,655 3.7 -21.0°
Drops below altitude 10° 01:03:01 10° 299° (WNW) 2,961 5.4 -20.2°
Sets 01:05:44 0° 307° (NW) 3,921 6.1 -19.9°
